Weather History for KMVE - October, 2013

Change the Weather History Date:

Friday, October 18, 2013

  Actual Average Record
Temperature  
Mean Temperature 42 °F -  
Max Temperature 51 °F 56 °F 84 °F (2005)
Min Temperature 32 °F 34 °F 18 °F (1972)
Degree Days  
Heating Degree Days 24    
Moisture  
Dew Point 33 °F    
Average Humidity 79    
Maximum Humidity 100    
Minimum Humidity 41    
Precipitation  
Precipitation 0.00 in - - ()
Sea Level Pressure  
Sea Level Pressure 29.96 in    
Wind  
Wind Speed 7 mph (WNW)    
Max Wind Speed 14 mph    
Max Gust Speed 20 mph    
Visibility 10 miles    
Events Rain    
Averages and records for this station are not official NWS values.
T = Trace of Precipitation, MM = Missing Value Source: NWS Daily Summary

Daily Weather History Graph

Daily Weather History Graph

Search for Another Location

Airport or City:

Trip Planner

Search our weather history database for the weather conditions in past years. The results will help you decide how hot, cold, wet, or windy it might be!

Date:

Astronomy

Oct. 18, 2013 Rise Set
Actual Time 7:42 AM CDT 6:32 PM CDT
Civil Twilight 7:13 AM CDT 7:02 PM CDT
Nautical Twilight 6:38 AM CDT 7:36 PM CDT
Astronomical Twilight 6:04 AM CDT 8:09 PM CDT
Moon 6:21 PM CDT (10/18) 7:19 AM CDT (10/18)
Length of Visible Light 11h 48m
Length of Day
10h 49m
Full, 100% of the Moon is Illuminated
Oct 18
Full
Oct 18
Full
Oct 26
Last Quarter
Nov 3
New
Nov 9
First Quarter

Hourly Weather History & Observations

Time (CDT) Temp. Windchill Dew Point Humidity Pressure Visibility Wind Dir Wind Speed Gust Speed Precip Events Conditions
12:14 AM 39.2 °F 34.2 °F 37.4 °F 93% 29.97 in 10.0 mi NNW 6.9 mph - N/A   Overcast
12:34 AM 39.2 °F 33.6 °F 37.4 °F 93% 29.97 in 10.0 mi NNW 8.1 mph - N/A   Overcast
12:54 AM 39.2 °F 34.2 °F 35.6 °F 87% 29.97 in 10.0 mi NNW 6.9 mph - N/A   Overcast
1:14 AM 37.4 °F 31.4 °F 35.6 °F 93% 29.97 in 10.0 mi NNW 8.1 mph - N/A   Overcast
1:34 AM 37.4 °F 30.8 °F 35.6 °F 93% 29.97 in 10.0 mi NNW 9.2 mph - N/A   Overcast
1:54 AM 37.4 °F 31.4 °F 35.6 °F 93% 29.98 in 10.0 mi NW 8.1 mph - N/A   Overcast
2:14 AM 35.6 °F 29.9 °F 33.8 °F 93% 29.98 in 10.0 mi NNW 6.9 mph - N/A   Scattered Clouds
2:34 AM 35.6 °F 29.9 °F 33.8 °F 93% 29.98 in 10.0 mi NNW 6.9 mph - N/A   Clear
2:54 AM 35.6 °F 30.7 °F 33.8 °F 93% 29.98 in 10.0 mi NNW 5.8 mph - N/A   Clear
3:13 AM 33.8 °F 27.7 °F 33.8 °F 100% 29.98 in 10.0 mi NW 6.9 mph - N/A   Clear
3:34 AM 33.8 °F 29.6 °F 32.0 °F 93% 29.98 in 10.0 mi NNW 4.6 mph - N/A   Clear
3:54 AM 33.8 °F 28.6 °F 33.8 °F 100% 29.98 in 10.0 mi NW 5.8 mph - N/A   Clear
4:14 AM 33.8 °F 28.6 °F 32.0 °F 93% 29.98 in 10.0 mi NW 5.8 mph - N/A   Clear
4:33 AM 33.8 °F 28.6 °F 32.0 °F 93% 29.98 in 10.0 mi NW 5.8 mph - N/A   Clear
4:54 AM 33.8 °F 29.6 °F 32.0 °F 93% 29.98 in 10.0 mi NW 4.6 mph - N/A   Clear
5:14 AM 32.0 °F 27.5 °F 32.0 °F 100% 29.99 in 10.0 mi WNW 4.6 mph - N/A   Clear
5:33 AM 32.0 °F 26.4 °F 32.0 °F 100% 29.99 in 10.0 mi WNW 5.8 mph - N/A   Clear
5:54 AM 32.0 °F 26.4 °F 32.0 °F 100% 30.00 in 10.0 mi WNW 5.8 mph - N/A   Clear
6:14 AM 32.0 °F 25.6 °F 30.2 °F 93% 30.00 in 10.0 mi WNW 6.9 mph - N/A   Clear
6:33 AM 32.0 °F 27.5 °F 30.2 °F 93% 30.00 in 10.0 mi NW 4.6 mph - N/A   Scattered Clouds
6:54 AM 32.0 °F 26.4 °F 30.2 °F 93% 30.01 in 10.0 mi WNW 5.8 mph - N/A   Mostly Cloudy
7:14 AM 32.0 °F 27.5 °F 30.2 °F 93% 30.01 in 10.0 mi NW 4.6 mph - N/A   Mostly Cloudy
7:33 AM 32.0 °F 27.5 °F 30.2 °F 93% 30.01 in 10.0 mi WNW 4.6 mph - N/A   Scattered Clouds
7:54 AM 32.0 °F 26.4 °F 30.2 °F 93% 30.01 in 10.0 mi WNW 5.8 mph - N/A   Clear
8:14 AM 32.0 °F 27.5 °F 30.2 °F 93% 30.02 in 10.0 mi West 4.6 mph - N/A   Clear
8:34 AM 33.8 °F 29.6 °F 30.2 °F 87% 30.02 in 10.0 mi WNW 4.6 mph - N/A   Clear
8:54 AM 33.8 °F 29.6 °F 30.2 °F 87% 30.02 in 10.0 mi WNW 4.6 mph - N/A   Clear
9:14 AM 35.6 °F 31.7 °F 32.0 °F 87% 30.02 in 10.0 mi WNW 4.6 mph - N/A   Clear
9:34 AM 35.6 °F 30.7 °F 32.0 °F 87% 30.03 in 10.0 mi WNW 5.8 mph - N/A   Clear
9:54 AM 37.4 °F 32.8 °F 33.8 °F 87% 30.02 in 10.0 mi WNW 5.8 mph - N/A   Clear
10:14 AM 39.2 °F 35.0 °F 33.8 °F 81% 30.02 in 10.0 mi WNW 5.8 mph - N/A   Clear
10:34 AM 42.8 °F 40.1 °F 35.6 °F 76% 30.02 in 10.0 mi WNW 4.6 mph - N/A   Clear
10:54 AM 44.6 °F 42.2 °F 35.6 °F 71% 30.02 in 10.0 mi WNW 4.6 mph - N/A   Clear
11:14 AM 44.6 °F 41.4 °F 35.6 °F 71% 30.01 in 10.0 mi WNW 5.8 mph - N/A   Clear
11:34 AM 46.4 °F 43.5 °F 35.6 °F 66% 30.01 in 10.0 mi WNW 5.8 mph - N/A   Clear
11:54 AM 48.2 °F - 35.6 °F 62% 30.01 in 10.0 mi WNW 8.1 mph - N/A   Clear
12:14 PM 48.2 °F - 33.8 °F 58% 30.01 in 10.0 mi WNW 6.9 mph - N/A   Clear
12:34 PM 50.0 °F - 33.8 °F 54% 30.00 in 10.0 mi WNW 10.4 mph - N/A   Clear
12:54 PM 50.0 °F - 30.2 °F 47% 29.99 in 10.0 mi NW 10.4 mph - N/A   Clear
1:14 PM 51.8 °F - 32.0 °F 47% 29.98 in 10.0 mi NW 10.4 mph 16.1 mph N/A   Clear
1:34 PM 51.8 °F - 30.2 °F 44% 29.97 in 10.0 mi NNW 9.2 mph - N/A   Scattered Clouds
1:53 PM 50.0 °F - 28.4 °F 43% 29.95 in 10.0 mi NW 11.5 mph 18.4 mph N/A   Scattered Clouds
2:14 PM 51.8 °F - 28.4 °F 41% 29.94 in 10.0 mi NW 10.4 mph - N/A   Scattered Clouds
2:34 PM 51.8 °F - 28.4 °F 41% 29.93 in 10.0 mi NW 9.2 mph - N/A   Mostly Cloudy
2:54 PM 51.8 °F - 28.4 °F 41% 29.93 in 10.0 mi NW 8.1 mph - N/A   Mostly Cloudy
3:14 PM 51.8 °F - 28.4 °F 41% 29.93 in 10.0 mi WNW 8.1 mph 16.1 mph N/A   Scattered Clouds
3:34 PM 51.8 °F - 28.4 °F 41% 29.93 in 10.0 mi WNW 9.2 mph - N/A   Mostly Cloudy
3:54 PM 50.0 °F - 30.2 °F 47% 29.93 in 10.0 mi WNW 5.8 mph - N/A   Overcast
4:14 PM 50.0 °F - 30.2 °F 47% 29.92 in 10.0 mi NW 6.9 mph 16.1 mph N/A   Scattered Clouds
4:34 PM 50.0 °F - 30.2 °F 47% 29.92 in 10.0 mi WNW 8.1 mph - N/A   Scattered Clouds
4:54 PM 50.0 °F - 30.2 °F 47% 29.92 in 10.0 mi NW 8.1 mph - N/A   Mostly Cloudy
5:14 PM 50.0 °F - 30.2 °F 47% 29.91 in 10.0 mi NW 9.2 mph - N/A   Mostly Cloudy
5:34 PM 46.4 °F 41.5 °F 33.8 °F 62% 29.92 in 10.0 mi NNW 10.4 mph 19.6 mph N/A Rain Light Rain
5:54 PM 46.4 °F 42.9 °F 33.8 °F 62% 29.92 in 10.0 mi NNW 6.9 mph - N/A   Overcast
6:14 PM 46.4 °F 45.2 °F 33.8 °F 62% 29.91 in 10.0 mi NW 3.5 mph - N/A   Overcast
6:34 PM 46.4 °F 45.2 °F 33.8 °F 62% 29.91 in 10.0 mi WNW 3.5 mph - N/A   Overcast
6:54 PM 44.6 °F 39.7 °F 35.6 °F 71% 29.91 in 10.0 mi NW 9.2 mph - N/A   Overcast
7:14 PM 44.6 °F 38.1 °F 37.4 °F 76% 29.92 in 10.0 mi WNW 13.8 mph 17.3 mph N/A Rain Light Rain
7:34 PM 42.8 °F 39.3 °F 37.4 °F 81% 29.91 in 10.0 mi West 5.8 mph - N/A   Overcast
7:54 PM 41.0 °F 38.0 °F 37.4 °F 87% 29.92 in 10.0 mi West 4.6 mph - N/A   Overcast
8:13 PM 41.0 °F 37.1 °F 37.4 °F 87% 29.91 in 10.0 mi West 5.8 mph - N/A   Mostly Cloudy
8:34 PM 39.2 °F 34.2 °F 37.4 °F 93% 29.91 in 10.0 mi West 6.9 mph - N/A   Overcast
8:54 PM 39.2 °F 33.6 °F 37.4 °F 93% 29.91 in 10.0 mi West 8.1 mph - N/A   Mostly Cloudy
9:13 PM 39.2 °F 35.0 °F 37.4 °F 93% 29.90 in 10.0 mi West 5.8 mph - N/A   Scattered Clouds
9:34 PM 39.2 °F 35.0 °F 37.4 °F 93% 29.89 in 10.0 mi West 5.8 mph - N/A   Clear
9:54 PM 37.4 °F 32.8 °F 37.4 °F 100% 29.89 in 10.0 mi West 5.8 mph - N/A   Clear
10:13 PM 37.4 °F 32.1 °F 37.4 °F 100% 29.89 in 10.0 mi West 6.9 mph - N/A   Scattered Clouds
10:34 PM 37.4 °F 32.8 °F 35.6 °F 93% 29.88 in 10.0 mi West 5.8 mph - N/A   Overcast
10:54 PM 37.4 °F 34.9 °F 35.6 °F 93% 29.88 in 10.0 mi West 3.5 mph - N/A   Scattered Clouds
11:13 PM 35.6 °F 32.8 °F 35.6 °F 100% 29.87 in 10.0 mi WSW 3.5 mph - N/A   Scattered Clouds
11:34 PM 35.6 °F 30.7 °F 35.6 °F 100% 29.86 in 10.0 mi West 5.8 mph - N/A   Mostly Cloudy
11:54 PM 35.6 °F 29.9 °F 35.6 °F 100% 29.86 in 10.0 mi West 6.9 mph - N/A   Scattered Clouds